Location: Alto Pass Reservoir
(37.5801°N, 89.3084°W)
Time: 16:27:53
(UTC+00:00)

Cosmos 2298 Rocket - Pass Details

Date: 07 July 2022
Orbit: 775 x 784 km, 74.0° (Epoch: 18 August)

Event Time Altitude Azimuth Distance (km) Brightness Sun altitude
Rises 07:20:45 0° 359° (N) 3,279 8.3 -27.1°
Reaches altitude 10° 07:24:05 10° 20° (NNE) 2,346 7.5 -26.8°
Maximum altitude 07:27:23 16° 58° (ENE) 1,934 6.7 -26.6°
Drops below altitude 10° 07:30:40 10° 97° (E) 2,337 6.7 -26.3°
Sets 07:33:57 0° 118° (ESE) 3,260 7.2 -26.1°
